STARLINK-3801, 52356

Orbit data source: Space-Track

STARLINK-3801, 52356 is a payload satellite owned by SpaceX/Seattle (US) in LEO that was launched on Fri, 29 Apr 2022 UTC via an FALCON 9 launch vehicle from the Air Force Eastern Test Range (AFETR). Payload-class satellites include a variety of spacecraft equipped with specific instruments for various scientific and technological missions. These include communications satellites like Starlink; space stations such as the ISS; scientific satellites like the Hubble; Earth observation satellites from companies like Planet Labs, Umbra, and HawkEye 360; GPS; miniature CubeSats for education and research; and military/defense satellites.

Loading next visibility...
Identifier
52356, 2022-045AB
Orbit
LEO
Country
Flag of USUS
Related business
Manufacturer
SpaceX/Seattle
Mission
Operational Commercial Communications
Bus & Motor
STARLINK, Unknown motor
Mass
297 kg wet, ~275 kg dry
Launch date (UTC)
2022-04-29 (4 years ago)
Launch vehicle
FALCON 9
Launch site
Air Force Eastern Test Range (AFETR)
Object type
Payload
Rocket body
Debris
Shape & HBR
Box + 1 Pan, 10.1 m
Radar Cross Section
11.087 m², Large (>1 m²)

Expand to show TLE details & history
Last TLE update: 2 days ago

TLE from 2 days ago
0 STARLINK-3801
1 52356U 22045AB  26171.41668980  .00002851  00000-0  18919-3 0  9990
2 52356  53.1598  97.8733 0001001  98.9431 265.6738 15.10384410  5624
Epoch: 2026-06-20T10:00Z
TLE epoch observation values (Epoch: 2026-06-20T10:00:01.998Z)
Latitude
3.62725°
Longitude
41.94057°
Altitude
535.573 km
Speed
7.596 km/s
True Right ascension
06h 42m 19s
True Declination
3° 36' 18"
Sunlit
Object was in daylight at epoch
Visualization orbit readout
Latitude
Unknown
Longitude
Unknown
Altitude
Unknown
Speed
Unknown
Apparent Right ascension
Unknown
Apparent Declination
Unknown
Sunlit
N/A
Visualization observer readout
Local Sidereal Time
23:27:00
Azimuth
Unknown
Elevation
Unknown
Doppler factor
Unknown
Orbital elements
Apogee altitude
535.973 km
Perigee altitude
534.589 km
Semi-major axis
6,913.418 km
Eccentricity
0.0001
Inclination
53.1598°
RAAN
97.8733°
Arg. of periapsis
98.9431°
True anomaly
265.66236°
Mean anomaly
265.6738°
Eccentric anomaly
265.66808°
Mean motion
3.77576 °/min
Orbital period
95.35 mins
BSTAR
0.00018919
Loading maneuver chart data...
Computing Atmospheric mass density...
Loading historical data...
Loading historical data...
Loading historical data...
Loading historical data...
Loading historical data...
Loading historical data...
Loading historical data...

Documentation

Showing up to 5 results
|